Weather in Madang

Papua New Guinea     5°13′46″S   145°47′05″E
temp.,
°C
wind,
m/s
gust,
m/s
humid.,
%
clouds,
%
prec.,
mm/h
press.,
hPa
HPBL,
m
17 may, tue
tue1701:00+23wsw11885 0.0 101268
04:00+23w22918 0.0 101177
07:00+24wsw11895 0.0 101289
10:00+29e11657 0.0 1013843
13:00+30e326047 0.0 10111138
16:00+29ene336212 0.0 1009818
19:00+25e238196 0.0 1011279
22:00+25ssw0184100 0.0 1013206
18 may, wed
wed1801:00+23wsw1191100 0.0 101281
04:00+23w119277 0.0 101162
07:00+23w118935 0.0 101269
10:00+29e22665 0.0 1013821
13:00+30e33612 0.0 1010993
16:00+29e34645 0.0 1008828
19:00+26ene138516 0.0 1011266
22:00+25ene128661 0.0 1013255
19 may, thu
thu1901:00+24sw119121 0.1 1011123
04:00+24wsw119012 0.8 101160
07:00+24wsw119110 0.3 101379
10:00+29ese13682 0.4 1013759
13:00+30e346510 0.1 10101155
16:00+29ene346913 0.2 10081031
19:00+26e248662 0.1 1010309
22:00+25e2590100 1.8 1012211
20 may, fri
fri2001:00+25ese259195 7.8 1011254
04:00+24ese129199 19.9 1010165
07:00+24wnw119376 7.3 101285
10:00+27sse137668 9.1 1013582
13:00+29e346935 0.6 10091020
16:00+28e347315 1.9 1008762
19:00+25e238987 2.3 1010199
22:00+25ene1289100 4.0 1011226
21 may, sat
sat2101:00+23s029486 5.7 1010147
04:00+23sw119587 8.6 1010123
07:00+23wsw119515 1.3 101173
10:00+27se14764 2.4 1012588
13:00+29e34678 0.8 10091058
16:00+29e35697 1.1 10081092
19:00+25ene248522 0.7 1009306
22:00+24ene139084 2.8 1011222